Riverdance — C6CG3 — position and weather

sailwx.info

Track history (hours):
 
Tides and Currents Weather Stations Pressure Air Temp Water Temp Dewpoint Dewpoint Depression Visibility Wind Speed Wind Dir Waves Ship Positions

Riverdance

Operator: Crescent Marine Services Ltd

Last reported at 2018-May-20 10:00 UTC. Time now 2018-May-20 21:29 UTC.
Position N 58°38' E 001°37'.

Length 72 m; draft 5.8 m.

Type: Other ship. MMSI: 311000463.

Date/timePositionNaut miles runAvg speedWind from/ knotsBaromVisibWave heightAir tempDewpointWater temp
2018-May-20 10:00N 58°38' E 001°37'0 0.4
2018-May-20 09:26N 58°39' E 001°37'2 0.4
2018-May-20 05:22N 58°40' E 001°38'1 0.3
2018-May-20 02:08N 58°41' E 001°40'0 0.5
2018-May-20 01:55N 58°41' E 001°40'0 0.5
2018-May-20 01:29N 58°41' E 001°40'0 0.4
2018-May-20 00:57N 58°41' E 001°40'1 0.4
2018-May-19 22:53N 58°42' E 001°41'1 3.5
2018-May-19 22:28N 58°40' E 001°40'2 3.5
2018-May-19 21:59N 58°39' E 001°39'2 3.5
2018-May-19 21:28N 58°37' E 001°37'5 0.7
2018-May-19 14:42N 58°40' E 001°44'35 1.8
2018-May-18 19:08N 59°16' E 001°45'1 2.5
2018-May-18 18:54N 59°16' E 001°45'  
2018-May-15 20:14N 59°23' E 001°53'  
2018-May-12 22:52N 60°02' E 004°32'410.0
2018-May-12 22:30N 60°04' E 004°39'510.4
2018-May-12 21:59N 60°06' E 004°49'510.3
2018-May-12 21:29N 60°08' E 004°58'510.0
2018-May-12 21:00N 60°10' E 005°07'4 8.3
2018-May-12 20:30N 60°14' E 005°10'5 9.5
2018-May-12 20:00N 60°18' E 005°12'5 9.1
2018-May-12 19:30N 60°23' E 005°11'4 7.8
2018-May-12 19:00N 60°24' E 005°18'0 0.8
2018-May-12 18:30N 60°24' E 005°19'0 0.0
2018-May-12 18:00N 60°24' E 005°19'0 0.0
2018-May-12 17:30N 60°24' E 005°19'0 0.0
2018-May-12 17:00N 60°24' E 005°19'0 0.0
2018-May-12 16:30N 60°24' E 005°19'0 0.0
2018-May-12 16:00N 60°24' E 005°19'0 0.0
2018-May-12 15:30N 60°24' E 005°19'0 0.0
2018-May-12 15:00N 60°24' E 005°19'0 0.0
2018-May-12 14:30N 60°24' E 005°19'0 0.0
2018-May-12 14:00N 60°24' E 005°19'0 0.0
2018-May-12 13:30N 60°24' E 005°19'0 0.0
2018-May-12 13:00N 60°24' E 005°19'0 0.0
2018-May-12 12:30N 60°24' E 005°19'0 0.0
2018-May-12 12:00N 60°24' E 005°19'0 0.0
2018-May-12 11:24N 60°24' E 005°19'0 0.0
2018-May-12 11:00N 60°24' E 005°19'0 0.0
2018-May-12 10:30N 60°24' E 005°19'0 0.0
2018-May-12 10:00N 60°24' E 005°19'0 0.4
2018-May-12 09:29N 60°24' E 005°19'4 7.5
2018-May-12 09:00N 60°23' E 005°11'4 8.0
2018-May-12 08:30N 60°19' E 005°12'5 9.7
2018-May-12 08:00N 60°15' E 005°09'4 8.8
2018-May-12 07:30N 60°10' E 005°09'5 9.3
2018-May-12 07:00N 60°09' E 005°00'2 4.8
2018-May-12 06:30N 60°10' E 004°55'2 4.6
2018-May-12 06:00N 60°11' E 004°52'2 4.5
2018-May-12 05:29N 60°13' E 004°49'2 4.8
2018-May-12 05:00N 60°15' E 004°46'1 1.1
2018-May-12 04:30N 60°15' E 004°45'3 5.2
2018-May-12 04:00N 60°12' E 004°44'3 6.0
2018-May-12 03:30N 60°09' E 004°44'3 6.0
2018-May-12 02:59N 60°06' E 004°44'3 6.1
2018-May-12 02:30N 60°03' E 004°43'1 1.5
2018-May-12 02:00N 60°02' E 004°43'1 2.6
2018-May-12 01:30N 60°04' E 004°43'1 2.5
2018-May-12 01:00N 60°05' E 004°43'2 3.1
2018-May-12 00:30N 60°07' E 004°43'2 3.4
2018-May-12 00:00N 60°08' E 004°42'2 3.3
2018-May-11 23:30N 60°10' E 004°42'2 3.3
2018-May-11 22:58N 60°11' E 004°41'2 3.4
2018-May-11 22:30N 60°13' E 004°40'2 4.0
2018-May-11 21:59N 60°15' E 004°39'2 4.1
2018-May-11 21:30N 60°17' E 004°38'2 4.2
2018-May-11 21:00N 60°19' E 004°37'1 1.7
2018-May-11 20:30N 60°19' E 004°39'2 4.2
2018-May-11 20:00N 60°17' E 004°39'2 4.3
2018-May-11 19:30N 60°15' E 004°40'1 2.1
2018-May-11 19:00N 60°15' E 004°42'2 4.0
2018-May-11 18:30N 60°17' E 004°41'2 3.8
2018-May-11 17:59N 60°19' E 004°41'2 4.4
2018-May-11 17:30N 60°21' E 004°40'2 3.6
2018-May-11 17:00N 60°19' E 004°42'2 4.1
2018-May-11 16:29N 60°17' E 004°43'2 3.8
2018-May-11 15:59N 60°15' E 004°43'2 3.5
2018-May-11 15:30N 60°17' E 004°41'2 3.5
2018-May-11 15:00N 60°19' E 004°41'2 3.5
2018-May-11 14:30N 60°20' E 004°40'2 3.5
2018-May-11 14:00N 60°22' E 004°39'2 3.7
2018-May-11 13:29N 60°24' E 004°39'2 3.7
2018-May-11 12:59N 60°26' E 004°39'2 3.7
2018-May-11 12:30N 60°24' E 004°40'2 3.6
2018-May-11 11:59N 60°22' E 004°41'2 3.6
2018-May-11 11:30N 60°21' E 004°42'2 3.6
2018-May-11 11:00N 60°19' E 004°42'2 3.5
2018-May-11 10:30N 60°17' E 004°43'2 4.0
2018-May-11 10:00N 60°15' E 004°45'2 3.1
2018-May-11 09:30N 60°17' E 004°45'2 3.0
2018-May-11 09:00N 60°18' E 004°44'2 3.0
2018-May-11 08:30N 60°20' E 004°44'2 3.1
2018-May-11 08:00N 60°21' E 004°43'2 3.2
2018-May-11 07:30N 60°23' E 004°43'2 3.6
2018-May-11 07:00N 60°25' E 004°42'2 3.7
2018-May-11 06:30N 60°26' E 004°41'1 2.4
2018-May-11 05:59N 60°25' E 004°40'2 4.2
2018-May-11 05:29N 60°23' E 004°41'2 4.2
2018-May-11 05:00N 60°21' E 004°42'2 4.1
2018-May-11 04:30N 60°19' E 004°42'2 4.2
2018-May-11 04:00N 60°17' E 004°43'2 3.7
2018-May-11 03:30N 60°15' E 004°42'2 4.1
2018-May-11 03:00N 60°17' E 004°41'2 4.0
2018-May-11 02:29N 60°19' E 004°40'2 4.1
2018-May-11 02:00N 60°21' E 004°40'2 4.1
2018-May-11 01:29N 60°23' E 004°39'2 4.1
2018-May-11 01:00N 60°25' E 004°38'2 2.9
2018-May-11 00:29N 60°24' E 004°40'2 4.6
2018-May-11 00:00N 60°22' E 004°41'2 4.6
2018-May-10 23:30N 60°20' E 004°42'2 4.3
2018-May-10 23:00N 60°18' E 004°43'2 4.3
2018-May-10 22:30N 60°15' E 004°44'1 1.8
2018-May-10 22:00N 60°16' E 004°45'2 4.5
2018-May-10 21:30N 60°18' E 004°44'2 4.6
2018-May-10 21:00N 60°20' E 004°44'2 4.5
2018-May-10 20:30N 60°23' E 004°43'2 4.6
2018-May-10 20:00N 60°25' E 004°42'2 3.4
2018-May-10 19:30N 60°26' E 004°40'2 4.6
2018-May-10 19:00N 60°24' E 004°40'2 4.5
2018-May-10 18:30N 60°22' E 004°41'2 4.5
2018-May-10 18:00N 60°20' E 004°42'2 4.6
2018-May-10 17:29N 60°17' E 004°43'2 4.4
2018-May-10 17:00N 60°15' E 004°44'2 3.4
2018-May-10 16:30N 60°17' E 004°45'2 4.5
2018-May-10 16:00N 60°19' E 004°44'2 4.4
2018-May-10 15:30N 60°21' E 004°43'2 4.5
2018-May-10 15:00N 60°23' E 004°42'2 4.5
2018-May-10 14:28N 60°26' E 004°42'2 3.8
2018-May-10 14:00N 60°27' E 004°40'2 4.3
2018-May-10 13:30N 60°25' E 004°40'2 4.5
2018-May-10 12:59N 60°23' E 004°41'2 4.5
2018-May-10 12:30N 60°21' E 004°42'2 4.5
2018-May-10 12:00N 60°18' E 004°43'2 4.5
2018-May-10 11:29N 60°16' E 004°43'2 3.5
2018-May-10 11:00N 60°15' E 004°43'2 4.5
2018-May-10 10:30N 60°17' E 004°41'2 4.5
2018-May-10 10:00N 60°19' E 004°41'  
Track history (hours):
 
Tides and Currents Weather Stations Pressure Air Temp Water Temp Dewpoint Dewpoint Depression Visibility Wind Speed Wind Dir Waves Ship Positions

Riverdance

Operator: Crescent Marine Services Ltd

Last reported at 2018-May-20 10:00 UTC. Time now 2018-May-20 21:29 UTC.
Position N 58°38' E 001°37'.

Length 72 m; draft 5.8 m.

Type: Other ship. MMSI: 311000463.

Date/timePositionNaut miles runAvg speedWind from/ knotsBaromVisibWave heightAir tempDewpointWater temp
2018-May-20 10:00N 58°38' E 001°37'0 0.4
2018-May-20 09:26N 58°39' E 001°37'2 0.4
2018-May-20 05:22N 58°40' E 001°38'1 0.3
2018-May-20 02:08N 58°41' E 001°40'0 0.5
2018-May-20 01:55N 58°41' E 001°40'0 0.5
2018-May-20 01:29N 58°41' E 001°40'0 0.4
2018-May-20 00:57N 58°41' E 001°40'1 0.4
2018-May-19 22:53N 58°42' E 001°41'1 3.5
2018-May-19 22:28N 58°40' E 001°40'2 3.5
2018-May-19 21:59N 58°39' E 001°39'2 3.5
2018-May-19 21:28N 58°37' E 001°37'5 0.7
2018-May-19 14:42N 58°40' E 001°44'35 1.8
2018-May-18 19:08N 59°16' E 001°45'1 2.5
2018-May-18 18:54N 59°16' E 001°45'  
2018-May-15 20:14N 59°23' E 001°53'  
2018-May-12 22:52N 60°02' E 004°32'410.0
2018-May-12 22:30N 60°04' E 004°39'510.4
2018-May-12 21:59N 60°06' E 004°49'510.3
2018-May-12 21:29N 60°08' E 004°58'510.0
2018-May-12 21:00N 60°10' E 005°07'4 8.3
2018-May-12 20:30N 60°14' E 005°10'5 9.5
2018-May-12 20:00N 60°18' E 005°12'5 9.1
2018-May-12 19:30N 60°23' E 005°11'4 7.8
2018-May-12 19:00N 60°24' E 005°18'0 0.8
2018-May-12 18:30N 60°24' E 005°19'0 0.0
2018-May-12 18:00N 60°24' E 005°19'0 0.0
2018-May-12 17:30N 60°24' E 005°19'0 0.0
2018-May-12 17:00N 60°24' E 005°19'0 0.0
2018-May-12 16:30N 60°24' E 005°19'0 0.0
2018-May-12 16:00N 60°24' E 005°19'0 0.0
2018-May-12 15:30N 60°24' E 005°19'0 0.0
2018-May-12 15:00N 60°24' E 005°19'0 0.0
2018-May-12 14:30N 60°24' E 005°19'0 0.0
2018-May-12 14:00N 60°24' E 005°19'0 0.0
2018-May-12 13:30N 60°24' E 005°19'0 0.0
2018-May-12 13:00N 60°24' E 005°19'0 0.0
2018-May-12 12:30N 60°24' E 005°19'0 0.0
2018-May-12 12:00N 60°24' E 005°19'0 0.0
2018-May-12 11:24N 60°24' E 005°19'0 0.0
2018-May-12 11:00N 60°24' E 005°19'0 0.0
2018-May-12 10:30N 60°24' E 005°19'0 0.0
2018-May-12 10:00N 60°24' E 005°19'0 0.4
2018-May-12 09:29N 60°24' E 005°19'4 7.5
2018-May-12 09:00N 60°23' E 005°11'4 8.0
2018-May-12 08:30N 60°19' E 005°12'5 9.7
2018-May-12 08:00N 60°15' E 005°09'4 8.8
2018-May-12 07:30N 60°10' E 005°09'5 9.3
2018-May-12 07:00N 60°09' E 005°00'2 4.8
2018-May-12 06:30N 60°10' E 004°55'2 4.6
2018-May-12 06:00N 60°11' E 004°52'2 4.5
2018-May-12 05:29N 60°13' E 004°49'2 4.8
2018-May-12 05:00N 60°15' E 004°46'1 1.1
2018-May-12 04:30N 60°15' E 004°45'3 5.2
2018-May-12 04:00N 60°12' E 004°44'3 6.0
2018-May-12 03:30N 60°09' E 004°44'3 6.0
2018-May-12 02:59N 60°06' E 004°44'3 6.1
2018-May-12 02:30N 60°03' E 004°43'1 1.5
2018-May-12 02:00N 60°02' E 004°43'1 2.6
2018-May-12 01:30N 60°04' E 004°43'1 2.5
2018-May-12 01:00N 60°05' E 004°43'2 3.1
2018-May-12 00:30N 60°07' E 004°43'2 3.4
2018-May-12 00:00N 60°08' E 004°42'2 3.3
2018-May-11 23:30N 60°10' E 004°42'2 3.3
2018-May-11 22:58N 60°11' E 004°41'2 3.4
2018-May-11 22:30N 60°13' E 004°40'2 4.0
2018-May-11 21:59N 60°15' E 004°39'2 4.1
2018-May-11 21:30N 60°17' E 004°38'2 4.2
2018-May-11 21:00N 60°19' E 004°37'1 1.7
2018-May-11 20:30N 60°19' E 004°39'2 4.2
2018-May-11 20:00N 60°17' E 004°39'2 4.3
2018-May-11 19:30N 60°15' E 004°40'1 2.1
2018-May-11 19:00N 60°15' E 004°42'2 4.0
2018-May-11 18:30N 60°17' E 004°41'2 3.8
2018-May-11 17:59N 60°19' E 004°41'2 4.4
2018-May-11 17:30N 60°21' E 004°40'2 3.6
2018-May-11 17:00N 60°19' E 004°42'2 4.1
2018-May-11 16:29N 60°17' E 004°43'2 3.8
2018-May-11 15:59N 60°15' E 004°43'2 3.5
2018-May-11 15:30N 60°17' E 004°41'2 3.5
2018-May-11 15:00N 60°19' E 004°41'2 3.5
2018-May-11 14:30N 60°20' E 004°40'2 3.5
2018-May-11 14:00N 60°22' E 004°39'2 3.7
2018-May-11 13:29N 60°24' E 004°39'2 3.7
2018-May-11 12:59N 60°26' E 004°39'2 3.7
2018-May-11 12:30N 60°24' E 004°40'2 3.6
2018-May-11 11:59N 60°22' E 004°41'2 3.6
2018-May-11 11:30N 60°21' E 004°42'2 3.6
2018-May-11 11:00N 60°19' E 004°42'2 3.5
2018-May-11 10:30N 60°17' E 004°43'2 4.0
2018-May-11 10:00N 60°15' E 004°45'2 3.1
2018-May-11 09:30N 60°17' E 004°45'2 3.0
2018-May-11 09:00N 60°18' E 004°44'2 3.0
2018-May-11 08:30N 60°20' E 004°44'2 3.1
2018-May-11 08:00N 60°21' E 004°43'2 3.2
2018-May-11 07:30N 60°23' E 004°43'2 3.6
2018-May-11 07:00N 60°25' E 004°42'2 3.7
2018-May-11 06:30N 60°26' E 004°41'1 2.4
2018-May-11 05:59N 60°25' E 004°40'2 4.2
2018-May-11 05:29N 60°23' E 004°41'2 4.2
2018-May-11 05:00N 60°21' E 004°42'2 4.1
2018-May-11 04:30N 60°19' E 004°42'2 4.2
2018-May-11 04:00N 60°17' E 004°43'2 3.7
2018-May-11 03:30N 60°15' E 004°42'2 4.1
2018-May-11 03:00N 60°17' E 004°41'2 4.0
2018-May-11 02:29N 60°19' E 004°40'2 4.1
2018-May-11 02:00N 60°21' E 004°40'2 4.1
2018-May-11 01:29N 60°23' E 004°39'2 4.1
2018-May-11 01:00N 60°25' E 004°38'2 2.9
2018-May-11 00:29N 60°24' E 004°40'2 4.6
2018-May-11 00:00N 60°22' E 004°41'2 4.6
2018-May-10 23:30N 60°20' E 004°42'2 4.3
2018-May-10 23:00N 60°18' E 004°43'2 4.3
2018-May-10 22:30N 60°15' E 004°44'1 1.8
2018-May-10 22:00N 60°16' E 004°45'2 4.5
2018-May-10 21:30N 60°18' E 004°44'2 4.6
2018-May-10 21:00N 60°20' E 004°44'2 4.5
2018-May-10 20:30N 60°23' E 004°43'2 4.6
2018-May-10 20:00N 60°25' E 004°42'2 3.4
2018-May-10 19:30N 60°26' E 004°40'2 4.6
2018-May-10 19:00N 60°24' E 004°40'2 4.5
2018-May-10 18:30N 60°22' E 004°41'2 4.5
2018-May-10 18:00N 60°20' E 004°42'2 4.6
2018-May-10 17:29N 60°17' E 004°43'2 4.4
2018-May-10 17:00N 60°15' E 004°44'2 3.4
2018-May-10 16:30N 60°17' E 004°45'2 4.5
2018-May-10 16:00N 60°19' E 004°44'2 4.4
2018-May-10 15:30N 60°21' E 004°43'2 4.5
2018-May-10 15:00N 60°23' E 004°42'2 4.5
2018-May-10 14:28N 60°26' E 004°42'2 3.8
2018-May-10 14:00N 60°27' E 004°40'2 4.3
2018-May-10 13:30N 60°25' E 004°40'2 4.5
2018-May-10 12:59N 60°23' E 004°41'2 4.5
2018-May-10 12:30N 60°21' E 004°42'2 4.5
2018-May-10 12:00N 60°18' E 004°43'2 4.5
2018-May-10 11:29N 60°16' E 004°43'2 3.5
2018-May-10 11:00N 60°15' E 004°43'2 4.5
2018-May-10 10:30N 60°17' E 004°41'2 4.5
2018-May-10 10:00N 60°19' E 004°41'  

Dump ship's entire track history